EW6230 Weather Reports


time (UTC)temp
C
wind
direction
speed
KPH
gust
KPH
rain 1hr
cm
rain 24hr
cm
rain mn
cm
humidity
%
barometer
mb
20260903161549 15 246 0.0 3.2 0.00 0.00 0.00 23 1004.0
20260903160043 15 1 0.0 0.0 0.00 0.00 0.00 10 1004.0
20260903154538 15 1 0.0 0.0 0.00 0.00 0.00 1 1004.0
20260903153034 13 1 0.0 0.0 0.00 0.00 0.00 1 1003.9
20260903151530 12 1 0.0 0.0 0.00 0.00 0.00 1 1004.0
20260903150026 11 1 0.0 1.6 0.00 0.00 0.00 1 1003.9
20260903144521 11 360 0.0 0.0 0.00 0.00 0.00 1 1003.9
20260903143016 11 359 0.0 0.0 0.00 0.00 0.00 1 1003.8
20260903141515 -17 0.0 0.0 0.00 0.00 0.00 1003.6
20260903140007 -17 0.0 0.0 0.00 0.00 0.00 1003.5
20260903134504 -17 0.0 0.0 0.00 0.00 0.00 1003.4
20260903133059 -17 0.0 0.0 0.00 0.00 0.00 1003.2
20260903131555 -17 0.0 0.0 0.00 0.00 0.00 1003.0
20260903130112 -17 0.0 0.0 0.00 0.00 0.00 1002.9
20260903124547 -17 0.0 0.0 0.00 0.00 0.00 1003.1
20260903123044 -17 0.0 0.0 0.00 0.00 0.00 1002.9
20260903121546 -17 0.0 0.0 0.00 0.00 0.00 1002.7
20260903120035 11 254 0.0 0.0 0.00 0.00 0.00 1 1002.7
20260903114534 11 248 0.0 0.0 0.00 0.00 0.00 1 1002.6
20260903113034 11 248 0.0 0.0 0.00 0.00 0.00 1 1002.5
20260903111522 11 248 0.0 0.0 0.00 0.00 0.00 1 1002.3
20260903110039 11 249 0.0 0.0 0.00 0.00 0.00 1 1002.2
20260903104514 11 249 0.0 0.0 0.00 0.00 0.00 1 1002.1
20260903103010 11 249 0.0 0.0 0.00 0.00 0.00 1 1002.0
20260903101507 11 248 0.0 0.0 0.00 0.00 0.00 1 1002.0
20260903094600 11 249 0.0 0.0 0.00 0.00 0.00 1 1001.9
20260903093053 11 249 0.0 1.6 0.00 0.00 0.00 1 1001.9
20260903091548 11 249 0.0 1.6 0.00 0.00 0.00 1 1001.8
20260903090044 11 249 0.0 0.0 0.00 0.00 0.00 1 1001.8
20260903084539 11 248 0.0 0.0 0.00 0.00 0.00 1 1001.7
20260903083036 11 248 0.0 0.0 0.00 0.00 0.00 1 1001.9
20260903081541 11 249 0.0 0.0 0.00 0.00 0.00 1 1001.8
20260903080026 11 248 0.0 0.0 0.00 0.00 0.00 1 1001.8
20260903074520 11 249 0.0 0.0 0.00 0.00 0.00 1 1001.6
20260903073017 11 248 0.0 0.0 0.00 0.00 0.00 1 1001.6
20260903071515 11 249 0.0 0.0 0.00 0.00 0.00 1 1001.5
20260903070011 11 248 0.0 0.0 0.00 0.00 0.00 1 1001.6
20260903064507 11 248 0.0 0.0 0.00 0.00 0.00 1 1001.5
20260903063005 11 248 0.0 0.0 0.00 0.00 0.00 1 1001.4
20260903061601 11 249 0.0 0.0 0.00 0.00 0.00 1 1001.5
20260903060053 11 248 0.0 0.0 0.00 0.00 0.00 1 1001.6
20260903054551 11 249 0.0 1.6 0.00 0.00 0.00 1 1001.5
20260903053102 11 238 0.0 0.0 0.00 0.00 0.00 1 1001.5
20260903051541 11 238 0.0 1.6 0.00 0.00 0.00 1 1001.5
20260903050035 12 62 0.0 1.6 0.00 0.00 0.00 1 1001.3
20260903044533 11 80 0.0 1.6 0.00 0.00 0.00 1 1001.3
20260903043026 11 156 0.0 1.6 0.00 0.00 0.00 1 1001.1
20260903041528 12 146 0.0 0.0 0.00 0.00 0.00 1 1001.0
20260903040019 12 210 0.0 1.6 0.00 0.00 0.00 1 1000.5
20260903034514 12 207 0.0 1.6 0.00 0.00 0.00 1 1000.1
20260903033010 12 239 0.0 0.0 0.00 0.00 0.00 1 999.8
20260903031505 12 238 0.0 0.0 0.00 0.00 0.00 1 999.3
20260903030004 13 241 0.0 1.6 0.00 0.00 0.00 1 998.9
20260903024556 13 235 0.0 1.6 0.00 0.00 0.00 1 998.7
20260903023055 13 237 0.0 1.6 0.00 0.00 0.00 1 998.7
20260903021604 13 237 0.0 1.6 0.00 0.00 0.00 1 998.4
20260903020043 14 233 0.0 0.0 0.00 0.00 0.00 1 998.2
20260903014543 14 233 0.0 0.0 0.00 0.00 0.00 1 998.0
20260903013034 15 233 0.0 0.0 0.00 0.00 0.00 1 997.6
20260903011540 15 233 0.0 1.6 0.00 0.00 0.00 1 997.1
20260903010029 15 226 0.0 1.6 0.00 0.00 0.00 1 997.0
20260903004531 15 200 0.0 1.6 0.00 0.00 0.00 1 996.5
20260903003021 15 160 0.0 0.0 0.00 0.00 0.00 1 996.2
20260903001516 15 160 0.0 1.6 0.00 0.00 0.00 1 996.0
20260903000011 16 251 0.0 0.0 0.00 0.00 0.00 1 996.1
20260902234507 16 252 0.0 0.0 0.00 0.00 0.00 1 996.1
20260902233006 16 252 0.0 0.0 0.00 0.00 0.00 1 996.1
20260902231558 16 251 0.0 1.6 0.00 0.00 0.00 18 996.5
20260902230053 16 255 0.0 0.0 0.00 0.00 0.00 44 996.9
20260902224549 16 227 0.0 0.0 0.00 0.00 0.00 29 996.6
20260902223045 16 227 0.0 0.0 0.00 0.00 0.00 32 996.6
20260902221540 16 227 0.0 0.0 0.00 0.00 0.00 32 996.5
20260902220035 16 227 0.0 0.0 0.00 0.00 0.00 42 996.6
20260902214531 16 227 0.0 0.0 0.00 0.00 0.00 44 996.7
20260902213026 17 227 0.0 0.0 0.00 0.00 0.00 50 997.0
20260902211522 17 227 0.0 0.0 0.00 0.00 0.00 52 997.2
20260902210018 17 227 0.0 0.0 0.00 0.00 0.00 55 997.3
20260902204524 18 227 0.0 0.0 0.00 0.00 0.00 55 997.5
20260902203008 17 227 0.0 0.0 0.00 0.00 0.00 45 997.6
20260902201506 16 227 0.0 0.0 0.00 0.00 0.00 25 997.7
20260902200117 16 227 0.0 0.0 0.00 0.00 0.00 23 997.9
20260902194559 16 227 0.0 0.0 0.00 0.00 0.00 17 998.2
20260902193051 16 227 0.0 0.0 0.00 0.00 0.00 15 998.4
20260902191549 16 227 0.0 0.0 0.00 0.00 0.00 9 998.6
20260902190042 15 226 0.0 0.0 0.00 0.00 0.00 6 998.6
20260902184538 15 226 0.0 0.0 0.00 0.00 0.00 12 998.9
20260902183043 15 226 0.0 0.0 0.00 0.00 0.00 15 999.1
20260902181526 16 226 0.0 0.0 0.00 0.00 0.00 10 999.2
20260902180022 16 226 0.0 0.0 0.00 0.00 0.00 9 999.4
20260902174518 16 224 0.0 0.0 0.00 0.00 0.00 15 999.6
20260902173013 16 236 0.0 0.0 0.00 0.00 0.00 2 999.6
20260902171508 15 236 0.0 0.0 0.00 0.00 0.00 1 999.7
20260902170008 15 236 0.0 0.0 0.00 0.00 0.00 1 999.9
20260902164605 15 236 0.0 0.0 0.00 0.00 0.00 1 1000.0
20260902163055 15 236 0.0 0.0 0.00 0.00 0.00 1 1000.2